User: anonymous   Login
Location: Unspecified
(0.0000°N, 0.0000°E)
Time: 00:45:42
(UTC+00:00)
Language:

STARLINK-3357 - Orbit

View from above orbital plane
View from above orbital plane
View from above satellite
View from above satellite

Ground track
Ground track

The orbit is defined by the following mean orbital elements,

1 51150U          26145.43352306 +.00000000 +00000-0 +38404-4 0 00002
2 51150  53.2128 314.2177 0001161  69.5396 290.5721 15.08835514    03
Epoch (UTC): 25 May 2026 10:24:16
Eccentricity: 0.0001161
inclination: 53.2128°
perigee height: 539 km
apogee height: 541 km
right ascension of ascending node: 314.2177°
argument of perigee: 69.5396°
revolutions per day: 15.08835514
mean anomaly at epoch: 290.5721°

The dashed part of the orbit path shows where the satellite is in the earth's shadow,  

DLR